[[[{"header":{"parameterUnit":"kt","parameterCategory":2,"dx":1,"dy":1,"la1":30.253999710083008,"la2":30.299108505249023,"lo1":-89.0895004272461,"lo2":-89.04439544677734,"nx":28,"ny":28,"refTime":"2022-09-22T21:00:00:Z","depth":"0","parameterNumber":2,"parameterNumberName":"U-component_of_CURRENTS"},"data":[0.158,0.1515,0.1545,0.1448,0.1427,0.1324,0.1282,0.1195,0.1113,0.089,0.075,0.0694,0.0519,-0.0001,-0.0194,-0.0092,-0.0128,-0.02,-0.0136,0.0077,0.0131,0.0183,0.0134,-0.0346,-0.0348,-0.0432,-0.0436,-0.0439,0.1704,0.1712,0.1675,0.1621,0.1564,0.1585,0.1512,0.144,0.1301,0.1163,0.1038,0.0906,0.0841,0.0881,0.0828,0.0684,0.0857,0.0584,0.0493,0.0619,0.1073,0.1054,0.0762,0.0762,0.0763,0.0763,0.0763,0.0763,0.1901,0.1866,0.1831,0.1784,0.1742,0.1697,0.1631,0.1568,0.1471,0.1313,0.1301,0.1166,0.117,0.1293,0.1359,0.1313,0.1402,0.1271,0.1119,0.1098,0.1139,0.1649,0.1498,0.1499,0.15,0.15,0.1501,0,0.2025,0.203,0.1984,0.1933,0.1881,0.1834,0.1771,0.1724,0.1682,0.1607,0.1485,0.1428,0.1443,0.1457,0.1548,0.1625,0.1604,0.1739,0.1511,0.1321,0.1221,0.1318,0.1924,0.1755,0.1758,0.1759,0.1761,0.1762,0.2166,0.2122,0.2082,0.2047,0.2014,0.196,0.1914,0.1899,0.185,0.1762,0.1706,0.1665,0.1611,0.1642,0.1765,0.1835,0.1769,0.1794,0.1889,0.1639,0.1504,0.1463,0.1538,0.1787,0.1784,0.1781,0.1779,0,0.2244,0.222,0.2141,0.2102,0.2086,0.2044,0.1991,0.1947,0.1936,0.1856,0.1841,0.1832,0.1821,0.191,0.1966,0.2023,0.1936,0.205,0.1975,0.1986,0.174,0.1604,0.1282,0.1338,0.1952,0.1949,0.1947,0,0.232,0.226,0.2221,0.2186,0.2121,0.2118,0.2057,0.2051,0.2025,0.197,0.2019,0.1965,0.2074,0.2074,0.2158,0.2152,0.2171,0.2212,0.2231,0.22,0.2193,0.2045,0.1916,0.2298,0.2299,0.23,0.2301,0,0.2399,0.2314,0.2246,0.2232,0.2188,0.2163,0.2153,0.2154,0.2135,0.2119,0.2095,0.2118,0.2119,0.2163,0.2242,0.2292,0.2241,0.2338,0.2285,0.2281,0.2279,0.2277,0.1874,0.2302,0.2302,0.2303,0.2303,0,0.2438,0.2399,0.2306,0.2265,0.2253,0.2218,0.2216,0.2196,0.2198,0.221,0.2215,0.227,0.2263,0.2341,0.2357,0.2388,0.2414,0.2453,0.2451,0.2462,0.2547,0.2406,0.2202,0.1977,0.2454,0.2456,0.2457,0,0.254,0.2442,0.2435,0.2359,0.232,0.2361,0.2333,0.2343,0.2364,0.235,0.2404,0.2418,0.2495,0.2508,0.2498,0.2579,0.2527,0.2584,0.2632,0.2632,0.2594,0.2409,0.2352,0.2233,0.2477,0.2475,0.2473,0,0.2627,0.2557,0.2552,0.2529,0.2525,0.2512,0.248,0.248,0.247,0.2487,0.2468,0.2523,0.2566,0.261,0.2678,0.2663,0.2561,0.273,0.2735,0.2684,0.2507,0.2444,0.2425,0.2615,0.2613,0.2611,0.2489,0,0.2699,0.2661,0.2622,0.2604,0.2595,0.2559,0.2593,0.2585,0.2622,0.2653,0.266,0.2737,0.2789,0.2795,0.2863,0.2812,0.283,0.2907,0.2988,0.2867,0.2828,0.2814,0.3023,0.3027,0.303,0.3032,0,0,0.2819,0.2769,0.2795,0.2752,0.2748,0.2803,0.2761,0.2773,0.281,0.2821,0.2862,0.2935,0.3011,0.3019,0.2986,0.3017,0.3014,0.3041,0.2924,0.2912,0.29,0.2857,0.2841,0.3038,0.3039,0.304,0.3041,0,0.2861,0.287,0.2819,0.2819,0.2818,0.2846,0.2832,0.286,0.2887,0.2882,0.2986,0.3013,0.3075,0.3131,0.317,0.3059,0.3139,0.3069,0.2953,0.295,0.2933,0.2919,0.2872,0.2855,0.3048,0.3048,0.3047,0,0.2958,0.2965,0.295,0.2943,0.2952,0.2927,0.3008,0.2986,0.2979,0.3116,0.3117,0.3183,0.3276,0.3271,0.3279,0.3319,0.3237,0.3286,0.3271,0.328,0.3285,0.3264,0.3246,0.3483,0.3484,0.3485,0,0,0.2997,0.2971,0.3,0.2959,0.2955,0.2999,0.2996,0.3037,0.3079,0.3102,0.3175,0.3245,0.3295,0.332,0.3376,0.3353,0.3386,0.3333,0.3313,0.3296,0.3295,0.3295,0.3275,0.3488,0.3488,0.3488,0,0,0.3027,0.305,0.3078,0.3036,0.3041,0.3084,0.3057,0.3101,0.3141,0.316,0.3282,0.3309,0.3323,0.3382,0.3414,0.34,0.3491,0.3486,0.3352,0.3328,0.3308,0.3298,0.3549,0,0,0,0,0,0.3091,0.304,0.3064,0.3062,0.3077,0.3061,0.3065,0.3127,0.3174,0.3155,0.3234,0.3325,0.3423,0.3454,0.3471,0.3428,0.3533,0.3525,0.3517,0.3342,0.3315,0.3293,0,0,0,0,0,0,0.3091,0.3089,0.3066,0.3103,0.3106,0.3065,0.3162,0.3178,0.3179,0.3193,0.3303,0.3328,0.3418,0.3453,0.3467,0.3423,0.3545,0.3529,0.3523,0.3517,0.3333,0.3311,0.3293,0,0,0,0,0,0.3091,0.3089,0.3099,0.3105,0.3108,0.317,0.3166,0.318,0.3189,0.3301,0.3325,0.3236,0.3414,0.3434,0.3462,0.3414,0.3536,0.3541,0.3525,0.352,0.3515,0.3322,0,0,0,0,0,0,0.3091,0.3109,0.3101,0.3104,0.3138,0.3175,0.3184,0.3182,0.3301,0.332,0.3241,0.3251,0.341,0.3426,0.3441,0.3404,0.3529,0.3534,0.3537,0.3521,0.3517,0.3513,0,0,0,0,0,0,0.311,0.3111,0.3102,0.3141,0.3149,0.3179,0.3187,0.3222,0.3304,0.3238,0.3247,0.3245,0.3415,0.342,0.3432,0.3481,0.3524,0.3529,0.3532,0.3534,0.3518,0.3515,0,0,0,0,0,0,0.3112,0.3113,0.3141,0.3147,0.3155,0.3195,0.3215,0.3247,0.3272,0.3234,0.3282,0.3287,0.3409,0.3421,0.3426,0.3468,0.3478,0.3524,0.3527,0.3529,0.3531,0,0,0,0,0,0,0,0.3113,0.3092,0.3078,0.3152,0.3159,0.3129,0.313,0.3131,0.3273,0.3277,0.3281,0.3285,0.3499,0.3504,0.3509,0.3458,0,0,0.3524,0.3526,0,0,0,0,0,0,0,0,0.3092,0.3092,0.3078,0.3078,0.3078,0.3129,0.313,0.3131,0.3273,0.3277,0.328,0.3283,0.35,0.3504,0.3508,0,0,0,0,0,0,0,0,0,0,0,0,0,0,0,0.3078,0.3078,0,0.3129,0.313,0.3131,0.3274,0.3277,0.3279,0.3282,0.3501,0.3504,0.3508,0,0,0,0,0,0,0,0,0,0,0,0,0,0,0,0,0,0,0,0,0,0,0,0,0,0,0,0,0,0,0,0,0,0,0,0,0,0,0,0,0,0,0,0,0,0,0,0,0,0,0,0,0,0,0,0,0,0,0,0,0,0,0,0,0,0,0,0,0]}],[{"header":{"parameterUnit":"kt","parameterCategory":2,"dx":1,"dy":1,"la1":30.253999710083008,"la2":30.299108505249023,"lo1":-89.0895004272461,"lo2":-89.04439544677734,"nx":28,"ny":28,"refTime":"2022-09-22T21:00:00:Z","depth":"0","parameterNumber":3,"parameterNumberName":"V-component_of_CURRENTS"},"data":[-0.1634,-0.1727,-0.1766,-0.1856,-0.1888,-0.1907,-0.1907,-0.1881,-0.1862,-0.181,-0.1772,-0.1721,-0.1039,0.054,0.1611,0.1836,0.2517,0.2538,0.2841,0.2187,0.2108,0.2033,0.2151,0.2812,0.2815,0.3959,0.3972,0.3982,-0.1601,-0.1651,-0.1714,-0.1779,-0.1819,-0.1809,-0.1809,-0.1805,-0.1789,-0.1749,-0.1701,-0.1501,-0.1048,-0.0638,-0.0027,0.0551,0.0764,0.0981,0.1356,0.1501,0.0288,0.0337,0.0622,0.0622,0.0621,0.0621,0.062,0.062,-0.1544,-0.1584,-0.1643,-0.1701,-0.1724,-0.1746,-0.1758,-0.1741,-0.1724,-0.167,-0.1613,-0.1553,-0.1256,-0.111,-0.0902,-0.0381,-0.0377,-0.0164,0.0154,0.0252,0.053,-0.0862,-0.0817,-0.0818,-0.082,-0.0821,-0.0822,0,-0.151,-0.1531,-0.1561,-0.1628,-0.1651,-0.1664,-0.1666,-0.1663,-0.1606,-0.1584,-0.1535,-0.1475,-0.1348,-0.1217,-0.1112,-0.1017,-0.0443,-0.0878,-0.0369,0.0167,0.036,0.0596,-0.0787,-0.0727,-0.0728,-0.0729,-0.073,-0.073,-0.1476,-0.1497,-0.1532,-0.1561,-0.1562,-0.1577,-0.1584,-0.1539,-0.1535,-0.1469,-0.1464,-0.1375,-0.1314,-0.1184,-0.112,-0.1034,-0.064,-0.0894,-0.0898,-0.042,-0.0081,0.0069,0.0266,-0.074,-0.0739,-0.0738,-0.0737,0,-0.1468,-0.1461,-0.1485,-0.1491,-0.1492,-0.1511,-0.1493,-0.1497,-0.1458,-0.1442,-0.1428,-0.1341,-0.1258,-0.1165,-0.1064,-0.1045,-0.0707,-0.0979,-0.0875,-0.0858,-0.0467,-0.0172,0.0222,0.0474,-0.0995,-0.0996,-0.0996,0,-0.1434,-0.144,-0.1435,-0.1446,-0.147,-0.1436,-0.1449,-0.1431,-0.1398,-0.1389,-0.1327,-0.1303,-0.1203,-0.1141,-0.108,-0.1028,-0.0999,-0.1008,-0.1,-0.0902,-0.0899,-0.0466,-0.0162,-0.0952,-0.0952,-0.0953,-0.0953,0,-0.14,-0.1388,-0.1406,-0.1402,-0.1384,-0.1388,-0.1381,-0.1357,-0.135,-0.1312,-0.1296,-0.124,-0.1206,-0.1151,-0.1075,-0.1076,-0.0994,-0.0988,-0.1003,-0.1005,-0.09,-0.0895,-0.0399,-0.0954,-0.0954,-0.0954,-0.0954,0,-0.1346,-0.135,-0.1361,-0.1347,-0.1347,-0.1344,-0.1345,-0.1333,-0.1301,-0.1282,-0.125,-0.1214,-0.1173,-0.1154,-0.1081,-0.1094,-0.106,-0.1026,-0.1023,-0.1065,-0.1057,-0.0923,-0.089,-0.0404,-0.0987,-0.0987,-0.0988,0,-0.1326,-0.1328,-0.1303,-0.1306,-0.131,-0.1285,-0.1281,-0.1267,-0.1247,-0.1232,-0.1196,-0.1175,-0.1151,-0.1138,-0.1114,-0.1068,-0.1052,-0.1075,-0.1015,-0.1014,-0.1066,-0.1061,-0.0951,-0.09,-0.0994,-0.0993,-0.0993,0,-0.1308,-0.1276,-0.1277,-0.128,-0.1257,-0.1251,-0.1241,-0.1235,-0.1238,-0.1199,-0.1197,-0.1158,-0.1139,-0.1127,-0.1106,-0.1087,-0.106,-0.107,-0.1069,-0.1056,-0.1013,-0.1062,-0.1063,-0.1051,-0.105,-0.105,-0.0998,0,-0.1287,-0.1275,-0.1266,-0.1262,-0.1246,-0.1237,-0.1221,-0.1209,-0.12,-0.1188,-0.1164,-0.1128,-0.111,-0.1099,-0.1086,-0.1073,-0.1062,-0.1058,-0.1064,-0.1056,-0.1032,-0.1028,-0.1069,-0.1069,-0.1069,-0.1068,0,0,-0.1289,-0.1282,-0.1258,-0.1251,-0.1245,-0.1222,-0.1223,-0.1207,-0.1178,-0.1176,-0.1166,-0.1122,-0.1104,-0.1092,-0.1088,-0.1071,-0.1055,-0.1082,-0.1058,-0.1057,-0.1056,-0.1033,-0.103,-0.1068,-0.1068,-0.1068,-0.1068,0,-0.1294,-0.1275,-0.1268,-0.1253,-0.123,-0.1221,-0.1218,-0.1195,-0.1192,-0.1166,-0.116,-0.1139,-0.1104,-0.1098,-0.109,-0.1069,-0.1062,-0.1064,-0.1076,-0.1057,-0.1056,-0.1055,-0.1033,-0.103,-0.1068,-0.1068,-0.1068,0,-0.1305,-0.1293,-0.1284,-0.1259,-0.1243,-0.1234,-0.1228,-0.1205,-0.1204,-0.1183,-0.117,-0.1147,-0.1128,-0.1106,-0.1096,-0.1099,-0.1066,-0.1076,-0.1077,-0.1082,-0.1062,-0.1061,-0.106,-0.1075,-0.1075,-0.1075,0,0,-0.1314,-0.13,-0.1281,-0.1261,-0.1252,-0.1233,-0.1217,-0.1213,-0.1194,-0.1187,-0.1172,-0.1155,-0.1137,-0.1128,-0.1106,-0.1079,-0.1069,-0.1079,-0.1078,-0.1078,-0.1083,-0.1064,-0.1063,-0.1076,-0.1076,-0.1076,0,0,-0.1319,-0.13,-0.1299,-0.1276,-0.1257,-0.1232,-0.1213,-0.1211,-0.119,-0.1192,-0.1181,-0.1176,-0.1153,-0.114,-0.1149,-0.1119,-0.1119,-0.1116,-0.1134,-0.1133,-0.1133,-0.1147,-0.1158,0,0,0,0,0,-0.1319,-0.1302,-0.1301,-0.1295,-0.1259,-0.1231,-0.1224,-0.1214,-0.1221,-0.1212,-0.1197,-0.12,-0.1146,-0.1153,-0.1145,-0.1148,-0.1083,-0.1082,-0.1081,-0.1096,-0.1096,-0.1095,0,0,0,0,0,0,-0.1317,-0.1311,-0.1301,-0.1277,-0.1268,-0.1232,-0.1242,-0.1238,-0.1222,-0.1224,-0.1202,-0.1199,-0.1191,-0.1157,-0.115,-0.1153,-0.116,-0.1083,-0.1082,-0.108,-0.1096,-0.1095,-0.1095,0,0,0,0,0,-0.1315,-0.131,-0.1262,-0.1277,-0.1269,-0.1247,-0.1243,-0.124,-0.1232,-0.1208,-0.1205,-0.1226,-0.1191,-0.1185,-0.1153,-0.1157,-0.1165,-0.1163,-0.1082,-0.1081,-0.108,-0.1096,0,0,0,0,0,0,-0.1313,-0.1305,-0.1259,-0.1255,-0.129,-0.1249,-0.1245,-0.1242,-0.1217,-0.1213,-0.1231,-0.1232,-0.119,-0.1185,-0.1181,-0.1159,-0.1169,-0.1166,-0.1165,-0.1081,-0.1081,-0.108,0,0,0,0,0,0,-0.1307,-0.1302,-0.1257,-0.1274,-0.1272,-0.1251,-0.1248,-0.1217,-0.1217,-0.1242,-0.1242,-0.1232,-0.1199,-0.1186,-0.1182,-0.1133,-0.1172,-0.117,-0.1168,-0.1167,-0.1081,-0.108,0,0,0,0,0,0,-0.1304,-0.13,-0.1276,-0.1274,-0.1272,-0.1228,-0.1223,-0.119,-0.1223,-0.1244,-0.1226,-0.1228,-0.12,-0.1196,-0.1183,-0.1136,-0.1134,-0.1172,-0.117,-0.1169,-0.1168,0,0,0,0,0,0,0,-0.1302,-0.134,-0.128,-0.1274,-0.1272,-0.1218,-0.1217,-0.1216,-0.1223,-0.1225,-0.1226,-0.1227,-0.1187,-0.1184,-0.1181,-0.1138,0,0,-0.1172,-0.1171,0,0,0,0,0,0,0,0,-0.1341,-0.134,-0.128,-0.1279,-0.1278,-0.1217,-0.1217,-0.1216,-0.1223,-0.1224,-0.1226,-0.1227,-0.1186,-0.1184,-0.1181,0,0,0,0,0,0,0,0,0,0,0,0,0,0,0,-0.128,-0.1279,0,-0.1217,-0.1217,-0.1216,-0.1224,-0.1224,-0.1225,-0.1226,-0.1185,-0.1183,-0.1181,0,0,0,0,0,0,0,0,0,0,0,0,0,0,0,0,0,0,0,0,0,0,0,0,0,0,0,0,0,0,0,0,0,0,0,0,0,0,0,0,0,0,0,0,0,0,0,0,0,0,0,0,0,0,0,0,0,0,0,0,0,0,0,0,0,0,0,0,0]}]],[[{"header":{"parameterUnit":"kt","parameterCategory":2,"dx":1,"dy":1,"la1":30.253999710083008,"la2":30.299108505249023,"lo1":-89.0895004272461,"lo2":-89.04439544677734,"nx":28,"ny":28,"refTime":"2022-09-22T21:00:00:Z","depth":"2","parameterNumber":2,"parameterNumberName":"U-component_of_CURRENTS"},"data":[-0.0755,-0.0757,-0.0774,-0.0727,-0.0709,-0.0677,-0.0674,-0.0769,-0.0871,-0.1035,-0.112,-0.1534,-0.1359,-0.1153,-0.1056,-0.0894,-0.0784,-0.0795,-0.0928,-0.0871,-0.0869,-0.0784,-0.0708,0,0,0,0,0,-0.0765,-0.0794,-0.0789,-0.0799,-0.0769,-0.0747,-0.0744,-0.0775,-0.0832,-0.1012,-0.1209,-0.1181,-0.134,-0.118,-0.0994,-0.0977,-0.0904,-0.079,-0.0728,-0.0728,-0.0728,-0.0675,-0.0732,-0.0731,-0.073,-0.0729,0,0,-0.0827,-0.0839,-0.0893,-0.086,-0.0835,-0.0815,-0.079,-0.08,-0.081,-0.0912,-0.1023,-0.1158,-0.1137,-0.1194,-0.1134,-0.0921,-0.0966,-0.0842,-0.0838,-0.0835,-0.0793,-0.0829,-0.0878,-0.0878,-0.0878,-0.0878,-0.0879,0,-0.0912,-0.0925,-0.0954,-0.0954,-0.091,-0.0884,-0.0827,-0.0818,-0.0782,-0.0786,-0.0831,-0.0919,-0.0977,-0.1021,-0.105,-0.1023,-0.0789,-0.0835,-0.0835,-0.0697,-0.0737,-0.077,-0.0769,-0.0768,-0.0768,-0.0768,-0.0768,-0.0767,-0.0987,-0.1004,-0.1041,-0.1028,-0.1014,-0.0949,-0.0896,-0.0843,-0.0802,-0.0764,-0.0744,-0.0714,-0.0788,-0.0834,-0.0801,-0.0861,-0.0775,-0.0826,-0.075,-0.0774,-0.0809,-0.0808,-0.0807,-0.0764,-0.0764,-0.0765,-0.0765,0,-0.1019,-0.1087,-0.1092,-0.1107,-0.1087,-0.1027,-0.0952,-0.0883,-0.081,-0.0735,-0.0694,-0.0631,-0.0625,-0.0612,-0.0624,-0.0644,-0.0686,-0.0732,-0.0746,-0.0777,-0.0799,-0.08,-0.0809,-0.0811,-0.0812,-0.0813,-0.0814,0,-0.1106,-0.1083,-0.1162,-0.1161,-0.1106,-0.1097,-0.0988,-0.0921,-0.0827,-0.0767,-0.0669,-0.063,-0.0541,-0.055,-0.0569,-0.062,-0.0595,-0.0649,-0.0685,-0.0659,-0.0665,-0.0672,-0.0681,-0.0586,-0.0585,-0.0584,-0.0584,0,-0.1119,-0.1172,-0.1193,-0.1194,-0.1201,-0.1134,-0.1092,-0.0981,-0.0923,-0.0783,-0.0727,-0.0613,-0.0565,-0.0546,-0.0571,-0.0548,-0.0589,-0.0582,-0.067,-0.0678,-0.0696,-0.0707,-0.0582,-0.0582,-0.0582,-0.0582,-0.0581,0,-0.117,-0.1228,-0.1257,-0.1244,-0.1234,-0.1204,-0.1081,-0.1045,-0.0923,-0.0851,-0.0733,-0.0676,-0.0592,-0.059,-0.056,-0.0544,-0.058,-0.0604,-0.061,-0.0677,-0.0749,-0.0812,-0.0757,-0.0738,-0.0738,-0.0738,-0.0738,0,-0.1155,-0.124,-0.1273,-0.1258,-0.1274,-0.1218,-0.1178,-0.1106,-0.1026,-0.093,-0.0847,-0.0762,-0.0737,-0.0672,-0.0632,-0.0631,-0.0631,-0.0618,-0.0719,-0.0724,-0.0742,-0.0678,-0.0652,-0.0759,-0.074,-0.074,-0.074,0,-0.1151,-0.1259,-0.1241,-0.1239,-0.1238,-0.1241,-0.1189,-0.1138,-0.1059,-0.0986,-0.089,-0.0822,-0.075,-0.0745,-0.0721,-0.0696,-0.0649,-0.0716,-0.0718,-0.0759,-0.065,-0.0682,-0.0685,-0.0618,-0.0616,-0.0615,-0.0742,0,-0.1189,-0.1208,-0.1226,-0.126,-0.1258,-0.1251,-0.1235,-0.1175,-0.1096,-0.106,-0.0946,-0.0916,-0.0854,-0.0845,-0.0845,-0.0771,-0.082,-0.0823,-0.0863,-0.0802,-0.0876,-0.0874,-0.093,-0.0933,-0.0935,-0.0936,0,0,-0.1114,-0.1194,-0.1227,-0.126,-0.125,-0.1219,-0.1221,-0.1202,-0.116,-0.1103,-0.1073,-0.0984,-0.0975,-0.0922,-0.0884,-0.0911,-0.0931,-0.0914,-0.0845,-0.0835,-0.0825,-0.089,-0.0886,-0.0939,-0.094,-0.0941,-0.0941,0,-0.1156,-0.1175,-0.1217,-0.1231,-0.1236,-0.1243,-0.1223,-0.1216,-0.1162,-0.1121,-0.1072,-0.1,-0.1008,-0.0982,-0.0982,-0.0937,-0.0979,-0.0942,-0.0882,-0.0862,-0.0849,-0.0838,-0.0898,-0.0893,-0.0946,-0.0946,-0.0946,0,-0.1132,-0.118,-0.1199,-0.1262,-0.1261,-0.1279,-0.125,-0.1234,-0.121,-0.1189,-0.1112,-0.1078,-0.1091,-0.1058,-0.1039,-0.1068,-0.1036,-0.1048,-0.104,-0.1036,-0.1017,-0.1003,-0.099,-0.1151,-0.1151,-0.1151,0,0,-0.1144,-0.119,-0.1237,-0.127,-0.1275,-0.1268,-0.1266,-0.1233,-0.1214,-0.1181,-0.1148,-0.1118,-0.1102,-0.1085,-0.1085,-0.1084,-0.1116,-0.1068,-0.1058,-0.105,-0.104,-0.102,-0.1007,-0.1152,-0.1152,-0.1152,0,0,-0.1142,-0.1218,-0.1201,-0.1257,-0.127,-0.1307,-0.1293,-0.1261,-0.121,-0.1156,-0.1148,-0.1138,-0.1077,-0.1114,-0.1118,-0.109,-0.1138,-0.1138,-0.1045,-0.1034,-0.1025,-0.1004,-0.1137,0,0,0,0,0,-0.1184,-0.1225,-0.121,-0.1222,-0.1284,-0.1331,-0.1333,-0.1288,-0.122,-0.1207,-0.1146,-0.1153,-0.1109,-0.1113,-0.1119,-0.1081,-0.1159,-0.1158,-0.1157,-0.1037,-0.1025,-0.1015,0,0,0,0,0,0,-0.1189,-0.1208,-0.1209,-0.1258,-0.127,-0.133,-0.1277,-0.1267,-0.1219,-0.1202,-0.1165,-0.1156,-0.1163,-0.1112,-0.1117,-0.1079,-0.1136,-0.1159,-0.1158,-0.1157,-0.1033,-0.1023,-0.1015,0,0,0,0,0,-0.1193,-0.1209,-0.1316,-0.1255,-0.1266,-0.1232,-0.1272,-0.1263,-0.1201,-0.1219,-0.1205,-0.1155,-0.1167,-0.1165,-0.1115,-0.1076,-0.1132,-0.1134,-0.1158,-0.1157,-0.1156,-0.1028,0,0,0,0,0,0,-0.1197,-0.1196,-0.1317,-0.1318,-0.1208,-0.1223,-0.1224,-0.126,-0.1217,-0.1206,-0.1217,-0.1206,-0.1171,-0.1169,-0.1168,-0.1071,-0.1129,-0.1131,-0.1133,-0.1157,-0.1157,-0.1156,0,0,0,0,0,0,-0.1187,-0.1197,-0.1317,-0.126,-0.1255,-0.1216,-0.1217,-0.1254,-0.1215,-0.1215,-0.1206,-0.1212,-0.1157,-0.1172,-0.1171,-0.1232,-0.1127,-0.1129,-0.113,-0.1131,-0.1157,-0.1156,0,0,0,0,0,0,-0.119,-0.1199,-0.126,-0.1255,-0.125,-0.1258,-0.1244,-0.1296,-0.1202,-0.1216,-0.1189,-0.1183,-0.1162,-0.116,-0.1174,-0.1236,-0.1233,-0.1127,-0.1129,-0.1129,-0.113,0,0,0,0,0,0,0,-0.1193,-0.1148,-0.1312,-0.1251,-0.1246,-0.133,-0.133,-0.133,-0.1201,-0.1196,-0.119,-0.1185,-0.1117,-0.1119,-0.1121,-0.1239,0,0,-0.1127,-0.1128,0,0,0,0,0,0,0,0,-0.1143,-0.1147,-0.1312,-0.1312,-0.1313,-0.133,-0.133,-0.133,-0.12,-0.1196,-0.1191,-0.1187,-0.1117,-0.1119,-0.1121,0,0,0,0,0,0,0,0,0,0,0,0,0,0,0,-0.1312,-0.1312,0,-0.133,-0.133,-0.133,-0.1199,-0.1196,-0.1192,-0.1189,-0.1118,-0.1119,-0.112,0,0,0,0,0,0,0,0,0,0,0,0,0,0,0,0,0,0,0,0,0,0,0,0,0,0,0,0,0,0,0,0,0,0,0,0,0,0,0,0,0,0,0,0,0,0,0,0,0,0,0,0,0,0,0,0,0,0,0,0,0,0,0,0,0,0,0,0,0]}],[{"header":{"parameterUnit":"kt","parameterCategory":2,"dx":1,"dy":1,"la1":30.253999710083008,"la2":30.299108505249023,"lo1":-89.0895004272461,"lo2":-89.04439544677734,"nx":28,"ny":28,"refTime":"2022-09-22T21:00:00:Z","depth":"2","parameterNumber":3,"parameterNumberName":"V-component_of_CURRENTS"},"data":[-0.092,-0.0818,-0.0753,-0.0614,-0.054,-0.0445,-0.0394,-0.033,-0.0251,-0.018,-0.012,0.0018,0.0268,0.0421,0.0747,0.106,0.1045,0.1106,0.1227,0.089,0.0873,0.1036,0.1016,0,0,0,0,0,-0.094,-0.0863,-0.0763,-0.0595,-0.0502,-0.0425,-0.0279,-0.0223,-0.0151,-0.003,0.0121,0.0177,0.0464,0.0628,0.1226,0.1537,0.15,0.1393,0.1151,0.1136,0.1123,0.1119,0.1268,0.1268,0.1268,0.1269,0,0,-0.0931,-0.0875,-0.0741,-0.0616,-0.0499,-0.0373,-0.0299,-0.0165,-0.0048,0.0079,0.0224,0.0358,0.044,0.0924,0.1138,0.1428,0.1473,0.1288,0.1271,0.1255,0.1269,0.1269,0.1452,0.1453,0.1454,0.1455,0.1456,0,-0.0863,-0.0824,-0.0715,-0.0577,-0.0479,-0.0328,-0.0192,-0.0133,0.0057,0.0142,0.0255,0.0378,0.0737,0.0905,0.1196,0.1262,0.1056,0.1127,0.1075,0.0874,0.0856,0.084,0.0823,0.0963,0.0961,0.096,0.0959,0.0959,-0.0789,-0.0754,-0.0566,-0.0495,-0.0428,-0.0304,-0.0209,-0.0033,0.0059,0.0233,0.0273,0.0421,0.0547,0.0754,0.0973,0.1135,0.0934,0.1068,0.1063,0.1008,0.0999,0.0979,0.0961,0.0942,0.0944,0.0946,0.0947,0,-0.0744,-0.0637,-0.0531,-0.035,-0.0298,-0.0236,-0.0051,0.0033,0.0143,0.0243,0.0277,0.0413,0.0508,0.057,0.0637,0.0733,0.0812,0.0868,0.0734,0.0738,0.0932,0.0921,0.1126,0.1133,0.1139,0.1144,0.1148,0,-0.0626,-0.057,-0.0404,-0.036,-0.0254,-0.0129,-0.0034,0.0059,0.018,0.0258,0.0342,0.0398,0.0457,0.0509,0.0518,0.0655,0.0584,0.0749,0.0763,0.0643,0.0646,0.0556,0.0549,0.0603,0.0603,0.0602,0.0602,0,-0.0605,-0.0447,-0.0368,-0.0312,-0.0131,-0.0092,-0.0003,0.0106,0.0183,0.0277,0.0323,0.0393,0.0428,0.0464,0.0484,0.0461,0.0547,0.052,0.0694,0.0703,0.0667,0.0672,0.0601,0.0601,0.0601,0.06,0.06,0,-0.0527,-0.0441,-0.0346,-0.0177,-0.0144,-0.009,0.0036,0.0116,0.0208,0.0242,0.029,0.0322,0.038,0.0347,0.0423,0.0382,0.0407,0.0415,0.0418,0.0614,0.0585,0.057,0.0609,0.0426,0.0424,0.0423,0.0421,0,-0.0514,-0.0413,-0.0346,-0.0242,-0.0172,-0.0093,-0.0019,0.0059,0.0107,0.0172,0.0196,0.0259,0.0241,0.0262,0.0285,0.0316,0.035,0.0297,0.0395,0.0399,0.0555,0.0607,0.0501,0.0582,0.0403,0.0405,0.0406,0,-0.0518,-0.0379,-0.0382,-0.0319,-0.0219,-0.0156,-0.0093,0.0005,0.0049,0.0081,0.0145,0.0199,0.0203,0.0248,0.0262,0.0286,0.0318,0.0279,0.0283,0.0323,0.0397,0.0559,0.0587,0.0306,0.0308,0.031,0.0392,0,-0.0416,-0.0384,-0.037,-0.0295,-0.0235,-0.0184,-0.0099,-0.0066,-0.0051,0.0009,0.0056,0.0103,0.0179,0.0166,0.0197,0.0251,0.0251,0.0247,0.0286,0.0275,0.0306,0.0317,0.0201,0.0202,0.0203,0.0204,0,0,-0.044,-0.0395,-0.036,-0.0314,-0.0258,-0.0211,-0.0155,-0.0099,-0.0013,0.0015,-0.0012,0.0099,0.0133,0.0217,0.021,0.0215,0.0237,0.0249,0.0262,0.0267,0.0273,0.0304,0.0314,0.0205,0.0206,0.0206,0.0206,0,-0.0398,-0.0393,-0.0381,-0.0318,-0.0248,-0.0177,-0.0185,-0.0087,-0.0061,-0.0005,0.0025,0.0044,0.0127,0.0187,0.0226,0.022,0.0272,0.0209,0.0227,0.0266,0.027,0.0275,0.0306,0.0314,0.0208,0.0208,0.0208,0,-0.0377,-0.034,-0.0334,-0.026,-0.02,-0.0132,-0.0109,-0.0065,-0.0015,0.0028,0.0075,0.01,0.0169,0.0217,0.0228,0.0242,0.0306,0.0277,0.0273,0.032,0.0365,0.0369,0.0373,0.0333,0.0333,0.0333,0,0,-0.0354,-0.0347,-0.0253,-0.0244,-0.0216,-0.0125,-0.0087,-0.005,0.001,0.0025,0.0074,0.0115,0.0167,0.0186,0.0243,0.0284,0.033,0.0291,0.0286,0.0281,0.0324,0.0367,0.037,0.0334,0.0334,0.0334,0,0,-0.0329,-0.0254,-0.0243,-0.0229,-0.0154,-0.0023,-0.0007,0.0021,0.0064,0.004,0.0112,0.0125,0.0145,0.0187,0.0192,0.0253,0.0277,0.0279,0.0235,0.0229,0.0223,0.0264,0.0257,0,0,0,0,0,-0.0255,-0.0262,-0.0253,-0.024,-0.0127,-0.0028,-0.0005,0.0051,0.003,0.0043,0.0072,0.011,0.0203,0.0211,0.023,0.0235,0.0349,0.0346,0.0344,0.0298,0.029,0.0284,0,0,0,0,0,0,-0.0249,-0.0235,-0.0251,-0.0131,-0.0104,-0.0027,-0.0005,0.0013,0.0029,0.0029,0.0106,0.0115,0.018,0.0205,0.0222,0.0225,0.0252,0.0348,0.0346,0.0344,0.0295,0.0289,0.0284,0,0,0,0,0,-0.0244,-0.0232,-0.0088,-0.0127,-0.0104,-0.0019,-0.0008,0.0007,0.0015,0.0115,0.0125,0.0041,0.0181,0.0195,0.0216,0.0216,0.024,0.0246,0.0346,0.0345,0.0343,0.0292,0,0,0,0,0,0,-0.024,-0.0188,-0.008,-0.0067,-0.0162,-0.0022,-0.0007,0.0002,0.01,0.0111,0.0058,0.0057,0.0183,0.0194,0.0204,0.0208,0.0231,0.0238,0.0241,0.0345,0.0344,0.0342,0,0,0,0,0,0,-0.0194,-0.0179,-0.0073,-0.012,-0.0112,-0.0026,-0.0012,0.0058,0.0098,0.0038,0.004,0.0056,0.0134,0.0193,0.0201,0.0314,0.0224,0.023,0.0234,0.0237,0.0344,0.0343,0,0,0,0,0,0,-0.0185,-0.0172,-0.0123,-0.0117,-0.0109,0.0043,0.0038,0.0132,0.0107,0.0031,0.0099,0.0096,0.0131,0.0142,0.0199,0.0309,0.0313,0.0225,0.0229,0.0231,0.0233,0,0,0,0,0,0,0,-0.0177,-0.0302,-0.0163,-0.0113,-0.0107,0.0049,0.0053,0.0057,0.0106,0.0103,0.01,0.0097,0.0191,0.0197,0.0204,0.0304,0,0,0.0224,0.0227,0,0,0,0,0,0,0,0,-0.0304,-0.0303,-0.0163,-0.0161,-0.0159,0.0049,0.0053,0.0056,0.0106,0.0103,0.0101,0.0099,0.0193,0.0198,0.0203,0,0,0,0,0,0,0,0,0,0,0,0,0,0,0,-0.0163,-0.0161,0,0.005,0.0053,0.0056,0.0105,0.0103,0.0101,0.0099,0.0194,0.0199,0.0203,0,0,0,0,0,0,0,0,0,0,0,0,0,0,0,0,0,0,0,0,0,0,0,0,0,0,0,0,0,0,0,0,0,0,0,0,0,0,0,0,0,0,0,0,0,0,0,0,0,0,0,0,0,0,0,0,0,0,0,0,0,0,0,0,0,0,0,0,0]}]],[[{"header":{"parameterUnit":"kt","parameterCategory":2,"dx":1,"dy":1,"la1":30.253999710083008,"la2":30.299108505249023,"lo1":-89.0895004272461,"lo2":-89.04439544677734,"nx":28,"ny":28,"refTime":"2022-09-22T21:00:00:Z","depth":"4","parameterNumber":2,"parameterNumberName":"U-component_of_CURRENTS"},"data":[-0.1186,-0.128,-0.1317,-0.1162,-0.1137,-0.1108,-0.1172,-0.1365,-0.1189,-0.1543,-0.1353,-0.178,-0.1545,-0.1806,-0.153,-0.1562,-0.1975,-0.1825,-0.1822,-0.2637,-0.269,-0.2737,-0.2768,0,0,0,0,0,-0.1227,-0.1272,-0.1393,-0.1457,-0.1516,-0.1567,-0.1704,-0.1837,-0.2126,-0.188,-0.2131,-0.1886,-0.1829,-0.1718,-0.1598,-0.1865,-0.2211,-0.1736,-0.2425,-0.267,-0.2729,-0.2739,0,0,0,0,0,0,-0.1304,-0.1372,-0.1573,-0.173,-0.1859,-0.1794,-0.1953,-0.1948,-0.2064,-0.251,-0.2241,-0.2371,-0.2533,-0.2332,-0.2146,-0.2154,-0.219,-0.2341,-0.2413,-0.2472,-0.2418,-0.2123,-0.1559,0,0,0,0,0,-0.1357,-0.1519,-0.1672,-0.1888,-0.2068,-0.2173,-0.2382,-0.2417,-0.2764,-0.318,-0.2965,-0.301,-0.2816,-0.2727,-0.2698,-0.2544,-0.3303,-0.3017,-0.3052,-0.3277,-0.3109,-0.3032,-0.3059,-0.295,-0.2958,-0.2962,-0.2965,0,-0.1436,-0.1555,-0.1897,-0.201,-0.2196,-0.2505,-0.261,-0.2996,-0.3088,-0.3468,-0.343,-0.3596,-0.3668,-0.3204,-0.336,-0.3205,-0.316,-0.3167,-0.3407,-0.3204,-0.311,-0.3123,-0.3133,-0.3012,-0.3009,-0.3005,-0.3001,0,-0.1483,-0.168,-0.187,-0.2188,-0.2308,-0.2492,-0.2834,-0.2975,-0.3431,-0.3682,-0.3886,-0.4124,-0.4032,-0.4168,-0.4139,-0.4034,-0.3832,-0.3619,-0.3984,-0.3897,-0.3223,-0.3214,-0.309,-0.3073,-0.3058,-0.3046,-0.3036,0,-0.1588,-0.1727,-0.2051,-0.2161,-0.2323,-0.255,-0.2794,-0.3037,-0.3393,-0.3531,-0.4028,-0.4075,-0.4493,-0.4461,-0.438,-0.4069,-0.4341,-0.3878,-0.3767,-0.4277,-0.4263,-0.4195,-0.417,-0.4433,-0.4436,-0.4438,-0.4439,0,-0.1638,-0.1878,-0.2016,-0.2114,-0.2328,-0.2499,-0.2637,-0.2933,-0.3096,-0.3633,-0.3837,-0.4143,-0.4382,-0.443,-0.4356,-0.4422,-0.4345,-0.4401,-0.3858,-0.3814,-0.4197,-0.4168,-0.4442,-0.4442,-0.4443,-0.4443,-0.4444,0,-0.1727,-0.185,-0.2032,-0.2215,-0.225,-0.2389,-0.2634,-0.2807,-0.3144,-0.3347,-0.3702,-0.3865,-0.4179,-0.418,-0.4313,-0.4328,-0.4259,-0.4231,-0.4221,-0.3736,-0.3528,-0.3721,-0.3928,-0.3926,-0.3925,-0.3923,-0.3922,0,-0.1702,-0.188,-0.1951,-0.2136,-0.2207,-0.2352,-0.2466,-0.2666,-0.2866,-0.3135,-0.3366,-0.3642,-0.3665,-0.3892,-0.4018,-0.4062,-0.4111,-0.4103,-0.3964,-0.3955,-0.3549,-0.365,-0.4172,-0.3901,-0.3904,-0.3905,-0.3907,0,-0.165,-0.1853,-0.1893,-0.2001,-0.2134,-0.2196,-0.2372,-0.2521,-0.2682,-0.2945,-0.3187,-0.343,-0.3587,-0.3657,-0.3763,-0.3898,-0.4044,-0.3867,-0.3866,-0.3753,-0.4127,-0.3669,-0.3635,-0.4139,-0.4146,-0.4151,-0.3892,0,-0.1706,-0.1817,-0.1849,-0.1985,-0.2057,-0.2142,-0.2251,-0.2414,-0.2528,-0.2652,-0.2938,-0.3057,-0.3273,-0.3371,-0.3358,-0.3661,-0.3542,-0.3548,-0.3507,-0.3678,-0.3516,-0.3529,-0.3313,-0.3308,-0.3305,-0.3301,0,0,-0.163,-0.1708,-0.1759,-0.1855,-0.192,-0.199,-0.2068,-0.2178,-0.2352,-0.2456,-0.2489,-0.2803,-0.2874,-0.3103,-0.3214,-0.3196,-0.3172,-0.3336,-0.3565,-0.3595,-0.3622,-0.3483,-0.3499,-0.3295,-0.3293,-0.3292,-0.3291,0,-0.1599,-0.1658,-0.1721,-0.1816,-0.1948,-0.1975,-0.2002,-0.2144,-0.2258,-0.2395,-0.2446,-0.2605,-0.2763,-0.2896,-0.2951,-0.3119,-0.3151,-0.3222,-0.3432,-0.3529,-0.3564,-0.3594,-0.3465,-0.3482,-0.3282,-0.3282,-0.3282,0,-0.156,-0.161,-0.1663,-0.1754,-0.1843,-0.1911,-0.1937,-0.2048,-0.2157,-0.2152,-0.2347,-0.2425,-0.2479,-0.268,-0.2768,-0.2745,-0.3069,-0.3019,-0.3036,-0.3061,-0.3156,-0.3195,-0.323,-0.2788,-0.2787,-0.2787,0,0,-0.154,-0.1608,-0.1681,-0.1753,-0.1778,-0.1893,-0.1946,-0.2039,-0.2096,-0.2145,-0.2259,-0.2361,-0.2446,-0.2538,-0.2616,-0.2772,-0.2725,-0.2967,-0.299,-0.301,-0.3045,-0.3144,-0.3181,-0.2783,-0.2783,-0.2783,0,0,-0.1532,-0.1613,-0.1698,-0.1731,-0.1839,-0.1923,-0.1979,-0.2036,-0.2121,-0.2159,-0.2219,-0.2245,-0.2404,-0.2426,-0.2365,-0.2747,-0.2637,-0.2648,-0.28,-0.2828,-0.285,-0.2883,-0.2487,0,0,0,0,0,-0.1591,-0.159,-0.1667,-0.1686,-0.1816,-0.189,-0.1915,-0.2025,-0.2058,-0.2121,-0.2156,-0.2255,-0.2432,-0.2376,-0.2401,-0.2657,-0.2743,-0.275,-0.2757,-0.2981,-0.3011,-0.3036,0,0,0,0,0,0,-0.1598,-0.1618,-0.1666,-0.1738,-0.1768,-0.1889,-0.1937,-0.1969,-0.2057,-0.2076,-0.2233,-0.2258,-0.2324,-0.2373,-0.2394,-0.2639,-0.248,-0.2745,-0.2752,-0.2757,-0.2991,-0.3016,-0.3037,0,0,0,0,0,-0.1604,-0.162,-0.1801,-0.174,-0.1767,-0.1904,-0.1939,-0.1967,-0.2065,-0.2162,-0.2193,-0.2148,-0.232,-0.2346,-0.2386,-0.2631,-0.2467,-0.2474,-0.2749,-0.2754,-0.2759,-0.3003,0,0,0,0,0,0,-0.1608,-0.1667,-0.181,-0.1822,-0.1755,-0.1905,-0.1933,-0.1965,-0.215,-0.2178,-0.2076,-0.2087,-0.2317,-0.2338,-0.2357,-0.263,-0.2456,-0.2463,-0.2468,-0.2753,-0.2757,-0.276,0,0,0,0,0,0,-0.1658,-0.1677,-0.1817,-0.1828,-0.1844,-0.1905,-0.1929,-0.1994,-0.2151,-0.2058,-0.2071,-0.2078,-0.2283,-0.2332,-0.2347,-0.2444,-0.2448,-0.2455,-0.246,-0.2463,-0.2756,-0.2759,0,0,0,0,0,0,-0.1668,-0.1685,-0.1827,-0.1839,-0.1853,-0.201,-0.1966,-0.2101,-0.2147,-0.2049,-0.2154,-0.2157,-0.2274,-0.2293,-0.234,-0.2429,-0.244,-0.2448,-0.2453,-0.2456,-0.2458,0,0,0,0,0,0,0,-0.1677,-0.1538,-0.1722,-0.1847,-0.186,-0.1934,-0.1939,-0.1944,-0.2148,-0.2151,-0.2154,-0.2156,-0.2409,-0.2416,-0.2424,-0.2417,0,0,-0.2447,-0.2451,0,0,0,0,0,0,0,0,-0.1534,-0.1537,-0.1723,-0.1725,-0.1726,-0.1935,-0.1939,-0.1943,-0.2149,-0.2151,-0.2153,-0.2155,-0.2411,-0.2417,-0.2423,0,0,0,0,0,0,0,0,0,0,0,0,0,0,0,-0.1723,-0.1724,0,-0.1935,-0.1939,-0.1942,-0.2149,-0.2151,-0.2152,-0.2154,-0.2412,-0.2417,-0.2422,0,0,0,0,0,0,0,0,0,0,0,0,0,0,0,0,0,0,0,0,0,0,0,0,0,0,0,0,0,0,0,0,0,0,0,0,0,0,0,0,0,0,0,0,0,0,0,0,0,0,0,0,0,0,0,0,0,0,0,0,0,0,0,0,0,0,0,0,0]}],[{"header":{"parameterUnit":"kt","parameterCategory":2,"dx":1,"dy":1,"la1":30.253999710083008,"la2":30.299108505249023,"lo1":-89.0895004272461,"lo2":-89.04439544677734,"nx":28,"ny":28,"refTime":"2022-09-22T21:00:00:Z","depth":"4","parameterNumber":3,"parameterNumberName":"V-component_of_CURRENTS"},"data":[-0.0546,-0.0658,-0.0683,-0.0853,-0.0956,-0.1121,-0.1204,-0.1235,-0.1163,-0.1202,-0.1015,-0.0982,-0.0649,-0.0944,-0.0349,-0.0282,0.0373,0.0105,0.0114,0.1204,0.1245,0.1281,0.0996,0,0,0,0,0,-0.0499,-0.0566,-0.0704,-0.0841,-0.102,-0.1098,-0.1237,-0.1251,-0.1295,-0.1272,-0.1248,-0.1111,-0.0782,-0.0666,-0.0368,-0.0388,0.0426,-0.0025,0.0905,0.123,0.1275,0.0982,0,0,0,0,0,0,-0.0451,-0.0529,-0.0628,-0.0762,-0.0951,-0.1076,-0.113,-0.1168,-0.1209,-0.1234,-0.1276,-0.1119,-0.0957,-0.0551,-0.0261,0.0075,0.0384,0.0769,0.0835,0.0883,0.0575,0.0159,0.0037,0,0,0,0,0,-0.0397,-0.0431,-0.0527,-0.0692,-0.0818,-0.0968,-0.1072,-0.1117,-0.1157,-0.1197,-0.1185,-0.1002,-0.081,-0.0297,-0.0018,0.0485,0.1167,0.1143,0.1182,0.1503,0.1257,0.1298,0.1294,0.1447,0.1452,0.1456,0.1458,0,-0.0305,-0.0365,-0.0505,-0.0603,-0.0665,-0.0783,-0.0882,-0.0914,-0.0969,-0.1057,-0.1079,-0.0905,-0.0748,-0.0172,0.0302,0.0917,0.1023,0.1252,0.1589,0.1327,0.1361,0.1345,0.1328,0.1494,0.1492,0.1489,0.1486,0,-0.0257,-0.0299,-0.042,-0.0523,-0.0573,-0.065,-0.0785,-0.0866,-0.0849,-0.0935,-0.0878,-0.0678,-0.0329,0.0086,0.0788,0.1068,0.147,0.1496,0.1518,0.1568,0.1412,0.138,0.1554,0.1541,0.153,0.152,0.1512,0,-0.0199,-0.0275,-0.0346,-0.0403,-0.0534,-0.0547,-0.0675,-0.0683,-0.0712,-0.0783,-0.0558,-0.0537,0.0157,0.0417,0.0883,0.1236,0.1492,0.1592,0.164,0.1907,0.1876,0.1987,0.1961,0.2196,0.2194,0.2193,0.2191,0,-0.0117,-0.0224,-0.0314,-0.034,-0.0434,-0.0484,-0.0518,-0.0543,-0.0585,-0.0505,-0.0505,-0.0163,0.0045,0.0545,0.0968,0.1094,0.1538,0.1775,0.1624,0.1592,0.1968,0.1944,0.2189,0.2189,0.2189,0.2188,0.2187,0,-0.0066,-0.013,-0.0236,-0.0331,-0.0356,-0.0403,-0.0469,-0.0485,-0.0467,-0.0421,-0.028,-0.0144,0.0175,0.0355,0.0967,0.0871,0.1183,0.1431,0.1448,0.1096,0.109,0.1475,0.1576,0.157,0.1565,0.1561,0.1557,0,0.0022,-0.0089,-0.0112,-0.0199,-0.0253,-0.0225,-0.0268,-0.0257,-0.0224,-0.022,-0.0026,0.0045,0.0248,0.0344,0.0614,0.0923,0.1134,0.0947,0.1451,0.1461,0.1087,0.11,0.1267,0.1489,0.1497,0.1503,0.1508,0,0.0089,0.0012,0.0008,-0.0025,-0.0035,-0.0067,-0.0086,-0.0098,-0.0129,0.0015,0.0002,0.0185,0.0312,0.0369,0.0505,0.0755,0.1022,0.0921,0.0936,0.1014,0.1511,0.1069,0.1066,0.1227,0.1235,0.1241,0.1461,0,0.013,0.0098,0.0061,0.0035,0.0023,-0.0006,0.002,0.0038,0.0097,0.0138,0.0208,0.0335,0.0428,0.0495,0.0551,0.0752,0.0782,0.0879,0.0977,0.1009,0.1083,0.1119,0.0707,0.0709,0.071,0.0711,0,0,0.023,0.0168,0.0189,0.0143,0.0132,0.0202,0.0156,0.0186,0.0231,0.0238,0.0307,0.0424,0.0512,0.0575,0.0605,0.0619,0.0756,0.0717,0.0942,0.0966,0.099,0.1065,0.1099,0.0713,0.0713,0.0714,0.0714,0,0.0229,0.024,0.02,0.0199,0.0214,0.0231,0.0222,0.0259,0.0305,0.0304,0.0387,0.0459,0.0527,0.0617,0.0659,0.0624,0.0825,0.068,0.0688,0.0942,0.0965,0.0987,0.1064,0.1094,0.0717,0.0717,0.0716,0,0.0295,0.0283,0.028,0.0262,0.0288,0.0262,0.0334,0.0337,0.0336,0.0431,0.0461,0.0525,0.0599,0.0651,0.0682,0.0725,0.09,0.0799,0.0794,0.0803,0.1071,0.1093,0.1113,0.0869,0.0869,0.087,0,0,0.0305,0.0282,0.0292,0.0267,0.0265,0.0316,0.0325,0.0375,0.0395,0.0421,0.0498,0.0573,0.0611,0.0666,0.0706,0.0746,0.0861,0.0815,0.0808,0.0802,0.0807,0.107,0.109,0.0871,0.0871,0.0871,0,0,0.0316,0.0311,0.0359,0.0311,0.0333,0.0362,0.0364,0.0405,0.0441,0.0469,0.0561,0.0584,0.0616,0.068,0.0677,0.0806,0.0838,0.0838,0.0783,0.0775,0.0768,0.0766,0.0833,0,0,0,0,0,0.035,0.0298,0.0341,0.0339,0.0353,0.0334,0.0343,0.0422,0.0469,0.0472,0.0515,0.0627,0.0712,0.071,0.0726,0.0798,0.0885,0.0882,0.088,0.0815,0.0806,0.0798,0,0,0,0,0,0,0.0349,0.0342,0.0342,0.0359,0.0364,0.0337,0.0427,0.0448,0.0473,0.0489,0.0606,0.0629,0.071,0.0711,0.0724,0.0792,0.083,0.0884,0.0882,0.088,0.0812,0.0804,0.0798,0,0,0,0,0,0.0348,0.0343,0.0342,0.0363,0.0367,0.0449,0.0431,0.045,0.0485,0.0583,0.061,0.0544,0.0705,0.0724,0.0719,0.0785,0.0822,0.0826,0.0883,0.0881,0.0879,0.0808,0,0,0,0,0,0,0.0348,0.0379,0.0345,0.035,0.0395,0.0455,0.0466,0.045,0.0583,0.0604,0.0526,0.0538,0.0702,0.0717,0.0731,0.0779,0.0816,0.082,0.0823,0.0881,0.088,0.0879,0,0,0,0,0,0,0.0382,0.0383,0.0348,0.0384,0.0395,0.046,0.0469,0.0498,0.0585,0.0522,0.0533,0.053,0.0694,0.0711,0.0723,0.0763,0.0811,0.0815,0.0818,0.082,0.088,0.0879,0,0,0,0,0,0,0.0384,0.0385,0.0384,0.0392,0.0402,0.0471,0.0492,0.0517,0.0571,0.0517,0.0581,0.0586,0.0687,0.07,0.0716,0.0751,0.076,0.0811,0.0814,0.0816,0.0817,0,0,0,0,0,0,0,0.0386,0.0355,0.0305,0.0399,0.0407,0.0395,0.0397,0.0399,0.0572,0.0576,0.058,0.0584,0.0788,0.0793,0.0797,0.0742,0,0,0.0811,0.0813,0,0,0,0,0,0,0,0,0.0358,0.0356,0.0305,0.0306,0.0306,0.0395,0.0397,0.0399,0.0572,0.0576,0.0579,0.0582,0.079,0.0793,0.0797,0,0,0,0,0,0,0,0,0,0,0,0,0,0,0,0.0306,0.0306,0,0.0395,0.0397,0.0398,0.0573,0.0576,0.0578,0.0581,0.0791,0.0794,0.0796,0,0,0,0,0,0,0,0,0,0,0,0,0,0,0,0,0,0,0,0,0,0,0,0,0,0,0,0,0,0,0,0,0,0,0,0,0,0,0,0,0,0,0,0,0,0,0,0,0,0,0,0,0,0,0,0,0,0,0,0,0,0,0,0,0,0,0,0,0]}]]]